Pagina principale
METAR-TAF:

METAR-TAF

Aeroporti :

Aeroporto di Rieti

Rieti, Italia

latitudine: 42-25N, longitudine: 012-51E, altezza: 389 m

Osservazione

Il bollettino è stato emesso 1 ora e 10 minuti fa, alle 08:50 UTC
Vento 2 kt da direzioni variabili
Temperature 19°C
Umidità 83%
Pressione 1017 hPa
Visibilità 10 km o più
nessuna nube inferiore a 1500 m e nessun cumulonembo

METAR: LIQN 170850Z VRB02KT CAVOK 19/16 Q1017

Ora: 12:00 (10:00 UTC)


TAF: mancante

Osservazioni e previsioni meteorologiche di più di 4000 aeroporti (messaggi METAR e TAF).

Le stazioni disponibili sono rappresentate dai dischi gialli e rossi sulla carta.

Puntare il mouse per vedere il nome della stazione.

Clicca sopra per visualizzare le osservazioni e previsioni meteorologiche.

Per cambiare la mappa : fare clic sui pulsanti verdi con una croce nera per ingrandire, il pulsante verde con un trattino per diminuire, o sulla freccia verde per le mappe adiacenti.


METAR-TAF: